Wind_Speed
15 13 12 11 9 8 5 3 3 4 4 5 7 8 10 10 11 11 11 11 11 11 10 10 10 10 10 9 9 8 7 7 7 7 7 7 7 6 6 5 5 5 4 4
17 16 15 14 12 10 7 5 5 5 5 5 6 7 8 9 10 10 10 11 10 10 10 10 9 9 9 9 9 8 7 7 7 7 7 7 7 6 6 5 5 4 4 4
19 18 18 16 13 11 9 7 7 6 5 6 6 6 7 8 8 9 10 10 10 9 8 9 9 8 8 8 8 7 7 7 7 6 7 7 7 7 7 6 5 5 4 4
23 22 20 17 15 12 11 10 9 7 6 7 6 6 8 8 8 8 9 9 8 8 8 8 8 8 7 7 7 7 7 6 6 6 6 6 7 7 6 6 6 5 5 4
25 24 22 20 17 15 14 12 11 10 8 8 8 7 8 7 7 7 8 7 7 7 7 7 7 7 6 6 6 6 5 6 6 6 6 5 6 6 6 6 5 5 5 5
28 26 24 22 20 18 16 14 13 12 10 10 10 8 7 7 7 7 7 7 6 7 7 6 6 6 6 5 5 5 4 5 5 5 5 5 4 5 5 5 5 4 4 4
30 28 27 24 22 21 18 15 13 12 12 12 12 10 9 8 7 7 7 7 7 7 6 6 6 6 5 4 4 4 3 3 4 4 4 4 3 3 3 4 4 3 3 3
29 29 28 27 25 22 20 18 16 14 13 13 14 11 10 9 8 8 7 7 7 7 7 7 6 6 5 4 3 3 2 2 3 3 3 2 3 3 2 2 2 2 3 3
28 28 27 27 26 24 22 21 18 16 15 14 14 14 11 10 9 9 9 9 8 8 8 8 7 6 6 5 4 4 3 3 3 4 3 2 3 3 3 3 2 2 3 3
30 29 28 28 27 26 24 21 20 18 16 15 14 14 13 12 11 10 10 10 10 10 9 9 8 8 7 6 6 5 4 4 4 4 4 4 4 4 4 4 4 4 5 5
30 29 28 28 28 26 25 23 21 20 19 16 16 15 15 14 12 11 11 11 12 11 10 10 9 9 9 8 7 7 7 7 6 6 5 6 5 5 5 5 5 6 7 7
31 30 28 28 28 27 26 24 23 22 21 19 17 17 16 15 13 13 12 12 12 12 12 11 11 11 11 10 9 9 9 9 8 8 7 7 7 7 7 7 7 9 9 10
31 31 30 28 29 29 29 27 25 23 22 21 19 17 17 16 14 14 14 13 13 12 13 12 12 12 12 12 11 11 11 11 11 10 10 10 9 9 10 10 10 11 12 12
30 31 30 28 27 27 29 29 28 26 24 23 22 19 18 18 16 15 15 15 14 14 15 15 14 14 13 13 13 12 13 12 12 12 12 12 12 12 13 13 13 14 14 14
30 31 30 29 28 27 28 28 28 28 27 25 23 21 20 19 17 16 16 16 17 16 16 17 16 15 14 14 14 14 14 15 15 15 15 15 14 14 15 15 16 16 16 16
30 31 30 30 29 28 29 29 28 28 28 28 26 24 22 21 20 19 18 18 19 19 18 17 17 17 16 16 17 17 17 17 18 17 17 18 17 18 18 18 18 18 18 17
30 30 29 28 28 29 30 29 29 29 28 27 26 26 24 23 22 21 20 21 21 21 19 19 19 19 19 19 19 19 20 20 21 20 20 21 20 21 21 21 21 20 20 20
29 29 29 28 28 29 28 28 29 29 28 28 28 26 25 24 23 22 21 21 21 21 21 21 21 21 21 22 22 22 23 23 23 24 24 24 24 24 24 24 24 23 23 22
28 28 28 28 28 28 28 28 28 29 29 28 28 27 26 24 24 24 23 23 24 24 24 23 23 23 23 24 24 25 26 26 27 26 26 26 26 27 28 27 26 25 26 25
28 28 28 28 27 27 28 28 27 28 30 29 29 29 28 27 26 26 25 25 26 26 26 26 26 26 26 26 26 27 27 27 28 28 28 29 29 30 30 29 29 28 28 28
28 28 28 28 27 28 30 27 26 27 28 27 28 29 29 29 29 28 27 28 28 29 29 29 29 28 28 28 28 29 29 29 29 30 30 31 31 31 31 30 30 30 30 30
28 27 28 27 27 28 28 27 27 28 27 27 27 28 29 29 29 29 30 30 31 31 32 32 31 31 31 31 31 30 31 31 31 32 32 32 32 33 32 32 32 32 33 33
29 29 29 29 29 28 27 26 27 27 28 28 28 29 29 30 31 31 32 33 33 33 34 34 34 34 34 33 33 33 33 33 33 33 33 33 33 34 35 34 34 34 34 35
29 30 30 30 30 29 28 28 29 28 28 29 29 30 30 32 32 33 34 33 34 35 35 35 35 35 35 35 35 35 35 35 35 34 34 35 35 35 36 35 35 35 36 35
29 29 30 30 29 29 29 29 29 29 29 29 29 30 31 31 32 33 33 33 34 35 36 35 36 36 36 36 36 36 37 37 37 37 37 37 36 36 37 37 37 37 37 37
28 29 29 30 30 29 28 27 28 29 29 29 29 29 30 30 32 33 33 33 34 35 36 36 36 37 37 37 37 37 38 38 38 38 38 38 37 37 38 38 38 38 38 38
Wind_Direction
215 212 212 216 210 208 218 246 293 316 349 4 10 14 19 24 22 21 23 25 28 33 36 39 42 46 51 54 56 60 64 68 72 76 81 87 93 98 104 111 122 131 133 134
217 217 215 215 217 222 234 246 277 297 317 332 341 357 8 16 18 16 15 16 22 29 32 34 38 43 48 53 57 61 65 70 73 77 81 83 87 92 98 103 106 115 124 122
219 219 220 219 221 225 236 244 255 273 298 316 334 344 350 0 7 9 9 12 17 22 26 28 32 37 44 50 53 57 62 65 69 74 81 83 84 87 90 92 93 93 101 98
219 219 221 222 225 228 240 247 252 261 284 302 315 319 326 340 350 357 1 5 10 15 18 21 24 29 37 42 49 52 54 57 61 68 78 83 83 83 84 86 87 82 84 83
224 222 222 223 226 229 237 247 252 256 268 281 292 297 304 319 336 343 350 352 357 5 10 12 13 18 27 33 38 39 46 51 55 59 68 77 78 78 77 78 80 79 75 72
225 225 224 224 227 230 237 244 252 256 262 268 275 282 289 302 316 321 332 337 339 346 353 358 1 5 15 23 24 24 38 49 54 55 59 66 72 74 72 69 71 73 71 68
225 227 226 226 228 231 234 240 251 258 260 261 267 269 272 287 296 304 312 320 323 326 332 337 343 350 356 1 10 14 24 37 47 45 47 54 59 62 64 60 59 60 60 55
226 228 228 227 228 233 235 236 240 247 254 260 267 268 273 277 284 288 295 304 312 313 313 315 321 327 331 334 342 356 360 3 7 7 11 17 18 25 28 34 38 41 36 27
225 227 228 229 228 230 235 237 238 246 250 253 259 270 273 271 275 279 281 289 297 301 303 301 303 308 307 307 312 322 329 323 331 336 339 332 328 332 338 345 330 340 341 338
223 225 228 230 230 231 233 237 238 237 244 250 259 268 273 270 269 274 274 279 283 288 292 291 293 295 294 290 291 293 302 304 309 314 316 320 311 306 315 321 324 318 315 318
222 225 228 230 230 233 234 234 238 240 241 247 256 262 272 272 269 274 275 275 273 275 279 279 281 285 284 284 284 282 288 291 293 297 301 307 302 296 298 306 304 306 308 311
221 224 228 232 233 231 234 236 239 240 245 248 252 260 267 273 269 269 271 271 269 266 268 271 273 277 277 275 275 276 280 285 286 286 286 290 294 290 289 290 296 299 301 303
222 224 227 231 234 234 235 237 239 240 245 249 253 258 264 270 269 265 265 266 266 266 267 268 269 272 271 271 273 272 274 279 284 284 283 284 285 290 290 290 291 292 291 293
224 226 226 229 235 239 239 241 240 239 240 246 250 253 260 265 265 263 262 262 263 266 265 264 264 267 269 270 270 270 272 276 279 282 283 287 287 291 291 292 293 289 285 285
225 229 230 231 234 238 241 242 241 240 239 241 248 253 256 260 261 259 259 260 262 263 265 263 261 267 268 267 266 269 272 275 277 280 284 284 285 286 288 290 291 291 293 285
227 230 232 233 234 237 239 239 239 240 241 242 246 250 253 255 258 258 257 257 259 260 263 263 262 266 266 266 266 268 270 273 275 277 280 282 281 281 283 285 290 291 291 288
227 229 232 234 234 237 239 237 237 239 240 242 245 248 251 253 256 257 255 255 258 257 259 263 266 267 265 266 266 267 271 272 274 275 276 276 277 280 282 283 286 289 289 290
226 228 231 234 235 238 239 239 239 241 242 242 244 246 247 249 253 254 254 254 256 258 263 263 264 265 265 266 267 267 270 271 273 274 274 275 277 278 280 282 282 282 283 285
227 228 230 232 236 240 241 242 241 242 243 244 246 246 246 247 251 253 256 258 258 259 262 264 266 266 266 268 269 271 271 272 272 272 273 274 275 277 278 279 278 277 279 280
226 228 231 233 235 241 246 245 245 247 249 247 247 247 248 248 250 252 254 256 257 259 262 264 266 267 267 267 269 272 273 274 274 274 274 273 274 275 277 276 276 277 279 280
227 229 231 235 237 241 244 246 246 247 249 247 247 247 247 248 250 252 254 257 258 259 262 264 265 267 269 269 269 270 272 274 276 276 275 274 272 272 273 274 276 278 279 280
230 231 232 234 236 241 244 244 245 247 247 246 246 246 247 247 250 253 256 259 259 259 262 265 265 267 268 269 269 270 271 273 274 275 275 274 273 272 271 273 274 275 276 278
231 231 232 234 237 241 244 245 247 248 246 246 248 248 248 249 251 253 256 258 259 261 263 265 266 267 268 268 268 270 272 273 274 274 274 274 273 272 270 271 273 274 275 276
233 233 234 236 237 239 243 245 248 248 248 249 250 251 251 251 252 253 256 258 261 264 265 265 266 267 269 269 270 271 271 273 274 273 273 273 272 273 271 272 273 273 274 275
233 234 235 237 238 240 243 246 247 247 249 252 253 254 253 254 255 256 258 260 262 263 265 266 267 267 268 269 270 271 272 273 274 273 272 272 272 272 271 270 271 272 272 274
233 234 237 240 241 243 244 246 247 248 249 252 254 256 258 259 258 258 258 260 261 263 264 265 266 267 268 269 270 272 273 273 274 273 273 273 272 271 270 269 270 270 271 273
Height
5916 5920 5922 5923 5925 5926 5926 5927 5927 5926 5925 5924 5923 5922 5921 5919 5917 5915 5913 5912 5910 5908 5906 5905 5903 5901 5900 5898 5897 5895 5894 5894 5893 5892 5891 5891 5890 5890 5890 5890 5890 5890 5890 5891
5915 5917 5920 5921 5922 5924 5925 5926 5926 5925 5925 5924 5923 5923 5921 5920 5918 5916 5915 5913 5911 5910 5908 5907 5905 5903 5901 5900 5899 5897 5896 5895 5894 5894 5893 5892 5892 5891 5891 5891 5891 5891 5891 5891
5912 5916 5916 5918 5920 5922 5923 5925 5925 5925 5924 5924 5924 5923 5922 5921 5919 5918 5916 5914 5912 5911 5910 5908 5907 5905 5903 5902 5900 5899 5898 5897 5896 5895 5895 5894 5893 5893 5893 5892 5892 5892 5892 5892
5907 5911 5913 5915 5918 5920 5921 5922 5923 5923 5924 5924 5924 5925 5922 5921 5919 5918 5916 5915 5913 5912 5911 5909 5908 5907 5905 5903 5902 5900 5899 5898 5898 5897 5896 5896 5895 5895 5894 5894 5893 5893 5893 5893
5903 5906 5909 5912 5915 5917 5918 5919 5920 5921 5922 5923 5922 5923 5923 5920 5919 5918 5917 5915 5914 5912 5911 5910 5909 5908 5906 5905 5903 5902 5901 5900 5899 5899 5898 5897 5897 5896 5896 5895 5895 5894 5894 5893
5899 5902 5905 5908 5911 5913 5915 5917 5918 5919 5920 5921 5921 5921 5922 5920 5919 5917 5916 5915 5914 5913 5912 5910 5909 5908 5907 5906 5905 5903 5902 5901 5900 5900 5899 5898 5898 5897 5897 5896 5896 5895 5895 5894
5894 5897 5900 5904 5907 5909 5912 5915 5917 5918 5919 5919 5918 5918 5919 5918 5917 5916 5915 5915 5914 5913 5911 5910 5909 5908 5907 5906 5905 5904 5902 5902 5901 5901 5900 5899 5899 5898 5898 5897 5896 5896 5895 5895
5890 5893 5896 5899 5903 5905 5908 5912 5914 5916 5917 5917 5915 5915 5917 5916 5915 5914 5914 5913 5912 5912 5911 5910 5909 5908 5907 5906 5905 5904 5903 5902 5901 5901 5900 5900 5900 5899 5898 5897 5897 5896 5896 5895
5886 5889 5892 5895 5898 5902 5904 5906 5910 5912 5912 5913 5913 5912 5913 5913 5913 5912 5912 5911 5911 5910 5910 5909 5908 5907 5906 5906 5905 5904 5903 5902 5902 5901 5900 5900 5899 5899 5898 5897 5897 5896 5896 5895
5880 5884 5887 5889 5893 5896 5899 5902 5905 5907 5908 5910 5911 5910 5911 5910 5910 5910 5910 5909 5909 5908 5908 5907 5907 5906 5905 5905 5904 5904 5903 5902 5902 5901 5900 5899 5899 5898 5898 5897 5897 5896 5895 5894
5874 5878 5882 5884 5887 5891 5894 5897 5899 5902 5904 5906 5907 5909 5907 5906 5907 5907 5907 5906 5906 5905 5905 5905 5905 5904 5904 5903 5903 5902 5902 5901 5900 5900 5899 5898 5897 5897 5897 5896 5895 5895 5894 5893
5868 5873 5876 5879 5882 5885 5888 5891 5894 5897 5898 5900 5902 5906 5903 5902 5903 5903 5903 5903 5903 5902 5902 5902 5902 5902 5902 5901 5901 5900 5900 5899 5899 5898 5897 5897 5896 5895 5895 5894 5894 5893 5892 5891
5862 5866 5870 5874 5877 5879 5882 5885 5888 5891 5894 5895 5897 5901 5898 5898 5898 5899 5899 5899 5899 5899 5899 5899 5899 5899 5899 5899 5898 5898 5898 5897 5896 5896 5895 5894 5893 5893 5892 5892 5891 5890 5889 5888
5856 5860 5865 5870 5872 5874 5876 5878 5881 5885 5887 5890 5891 5894 5894 5894 5894 5895 5895 5895 5895 5896 5896 5896 5896 5896 5896 5896 5895 5895 5895 5894 5894 5893 5892 5891 5891 5890 5889 5888 5887 5886 5886 5885
5849 5853 5857 5861 5865 5868 5870 5872 5875 5878 5881 5884 5886 5887 5888 5889 5890 5890 5891 5891 5891 5892 5892 5892 5892 5892 5892 5892 5891 5891 5891 5891 5891 5890 5889 5888 5888 5887 5886 5884 5883 5882 5881 5880
5843 5847 5851 5854 5858 5860 5863 5865 5868 5871 5874 5877 5879 5881 5882 5884 5884 5885 5886 5886 5887 5887 5887 5887 5887 5887 5887 5887 5887 5887 5887 5887 5886 5886 5885 5884 5883 5883 5881 5880 5879 5878 5877 5875
5837 5841 5845 5848 5851 5854 5856 5859 5862 5864 5867 5870 5872 5875 5876 5878 5879 5880 5880 5881 5881 5882 5882 5882 5882 5883 5882 5882 5882 5882 5882 5882 5881 5881 5880 5879 5878 5878 5877 5876 5874 5873 5872 5871
5831 5835 5838 5842 5845 5847 5852 5853 5855 5858 5860 5863 5865 5868 5870 5872 5873 5874 5874 5875 5876 5876 5877 5877 5877 5877 5877 5877 5877 5876 5876 5876 5875 5875 5874 5873 5873 5872 5871 5870 5869 5867 5866 5865
5824 5828 5832 5836 5838 5841 5843 5846 5848 5851 5853 5856 5858 5861 5863 5864 5866 5867 5868 5869 5870 5870 5871 5871 5871 5871 5871 5870 5870 5870 5869 5869 5868 5867 5867 5866 5866 5865 5864 5864 5862 5861 5860 5859
5818 5821 5826 5829 5832 5835 5837 5839 5841 5845 5846 5849 5851 5853 5855 5858 5859 5861 5861 5862 5863 5863 5864 5864 5864 5864 5864 5863 5863 5862 5862 5861 5860 5860 5859 5858 5858 5857 5856 5856 5855 5854 5853 5852
5811 5814 5818 5821 5825 5828 5828 5831 5835 5838 5840 5842 5843 5846 5848 5849 5851 5853 5854 5855 5856 5856 5857 5857 5856 5856 5856 5856 5855 5855 5854 5853 5853 5852 5851 5850 5849 5848 5848 5847 5847 5846 5845 5844
5804 5807 5811 5814 5818 5821 5821 5824 5827 5829 5831 5834 5835 5838 5840 5841 5843 5845 5846 5847 5847 5848 5848 5848 5848 5848 5848 5847 5847 5846 5846 5845 5844 5843 5842 5841 5840 5839 5839 5838 5838 5837 5837 5836
5796 5801 5803 5807 5811 5812 5814 5817 5819 5821 5823 5825 5828 5830 5831 5833 5834 5836 5837 5838 5838 5839 5839 5839 5838 5838 5838 5837 5837 5837 5837 5836 5835 5833 5832 5831 5831 5830 5829 5829 5828 5827 5827 5826
5789 5793 5796 5799 5802 5804 5806 5809 5811 5813 5815 5818 5820 5821 5823 5824 5825 5826 5827 5828 5829 5829 5829 5828 5828 5828 5828 5827 5827 5826 5826 5825 5824 5823 5822 5821 5820 5820 5819 5818 5818 5817 5817 5816
5782 5786 5788 5791 5794 5796 5799 5801 5803 5805 5807 5809 5811 5812 5813 5814 5815 5816 5817 5817 5818 5818 5818 5818 5817 5817 5817 5816 5816 5815 5815 5814 5813 5812 5811 5810 5809 5809 5808 5808 5807 5807 5806 5806
5775 5779 5782 5784 5787 5789 5791 5793 5796 5798 5799 5801 5802 5803 5804 5804 5805 5806 5807 5807 5807 5807 5807 5807 5806 5806 5805 5805 5804 5804 5803 5802 5802 5801 5800 5799 5798 5798 5797 5797 5797 5796 5796 5795